Weather History for Chicopee, MA

Change the Weather History Date:

Tuesday, November 20, 2012

  Actual Average Record
Temperature  
Mean Temperature 34 °F -  
Max Temperature 48 °F 45 °F 67 °F (2011)
Min Temperature 20 °F 28 °F 17 °F (2013)
Degree Days  
Heating Degree Days 31    
Moisture  
Dew Point 23 °F    
Average Humidity 86    
Maximum Humidity 100    
Minimum Humidity 43    
Precipitation  
Precipitation 0.00 in - - ()
Sea Level Pressure  
Sea Level Pressure 30.22 in    
Wind  
Wind Speed 1 mph (North)    
Max Wind Speed 6 mph    
Max Gust Speed -    
Visibility 5 miles    
Events      
Averages and records for this station are not official NWS values.
T = Trace of Precipitation, MM = Missing Value Source: NWS Daily Summary

Daily Weather History Graph

Daily Weather History Graph

Search for Another Location

Airport:

Trip Planner

Search our weather history database for the weather conditions in past years. The results will help you decide how hot, cold, wet, or windy it might be!

Date:

Astronomy

Nov. 20, 2012 Rise Set
Actual Time 6:47 AM EST 4:24 PM EST
Civil Twilight 6:16 AM EST 4:54 PM EST
Nautical Twilight 5:42 AM EST 5:29 PM EST
Astronomical Twilight 5:09 AM EST 6:02 PM EST
Moon 12:16 PM EST (11/20) 11:57 PM EST (11/20)
Length of Visible Light 10h 38m
Length of Day
9h 37m
Waxing Crescent, 51% of the Moon is Illuminated
Nov 20
Waxing Crescent
Nov 28
Full
Dec 6
Last Quarter
Dec 13
New
Dec 20
First Quarter

Hourly Weather History & Observations

Time (EST) Temp. Windchill Dew Point Humidity Pressure Visibility Wind Dir Wind Speed Gust Speed Precip Events Conditions
12:36 AM 23.0 °F - 21.2 °F 93% 30.27 in 2.5 mi Calm Calm - N/A   Clear
12:37 AM 23.0 °F - 21.2 °F 93% 30.27 in 2.0 mi Calm Calm - N/A   Clear
12:38 AM 23.0 °F - 21.2 °F 93% 30.26 in 1.8 mi Calm Calm - N/A   Clear
12:39 AM 23.0 °F - 21.2 °F 93% 30.26 in 1.5 mi Calm Calm - N/A   Clear
12:43 AM 23.0 °F - 23.0 °F 100% 30.26 in 1.2 mi Calm Calm - N/A   Clear
12:45 AM 24.8 °F - 23.0 °F 93% 30.26 in 1.5 mi Calm Calm - N/A   Clear
12:49 AM 23.0 °F - 21.2 °F 93% 30.26 in 1.2 mi Calm Calm - N/A   Clear
12:51 AM 23.0 °F - 21.2 °F 93% 30.26 in 1.0 mi Calm Calm - N/A   Clear
12:55 AM 23.4 °F - 22.1 °F 95% 30.26 in 1.0 mi Calm Calm - N/A   Clear
12:56 AM 23.0 °F - 23.0 °F 100% 30.26 in 1.2 mi Calm Calm - N/A   Clear
12:57 AM 23.0 °F - 23.0 °F 100% 30.26 in 1.5 mi Calm Calm - N/A   Clear
12:58 AM 23.0 °F - 23.0 °F 100% 30.26 in 1.8 mi Calm Calm - N/A   Clear
12:59 AM 23.0 °F - 23.0 °F 100% 30.26 in 2.0 mi Calm Calm - N/A   Clear
1:00 AM 23.0 °F - 21.2 °F 93% 30.26 in 3.0 mi Calm Calm - N/A   Clear
1:55 AM 23.7 °F 19.3 °F 22.1 °F 94% 30.25 in 7.0 mi North 3.5 mph - N/A   Clear
2:46 AM 24.8 °F - 23.0 °F 93% 30.25 in 2.5 mi Calm Calm - N/A   Clear
2:50 AM 23.0 °F - 21.2 °F 93% 30.25 in 2.0 mi Calm Calm - N/A   Clear
2:55 AM 23.0 °F - 21.6 °F 94% 30.25 in 1.8 mi Calm Calm - N/A   Clear
2:56 AM 23.0 °F - 21.2 °F 93% 30.25 in 2.0 mi Calm Calm - N/A   Clear
2:59 AM 23.0 °F - 21.2 °F 93% 30.25 in 2.5 mi Calm Calm - N/A   Clear
3:00 AM 23.0 °F - 21.2 °F 93% 30.25 in 3.0 mi Calm Calm - N/A   Clear
3:12 AM 21.2 °F - 19.4 °F 93% 30.24 in 2.5 mi Calm Calm - N/A   Clear
3:13 AM 21.2 °F - 19.4 °F 93% 30.24 in 2.0 mi Calm Calm - N/A   Clear
3:14 AM 21.2 °F - 19.4 °F 93% 30.24 in 1.8 mi Calm Calm - N/A   Clear
3:15 AM 21.2 °F - 19.4 °F 93% 30.24 in 1.5 mi Calm Calm - N/A   Clear
3:17 AM 21.2 °F - 19.4 °F 93% 30.24 in 1.2 mi Calm Calm - N/A   Clear
3:18 AM 21.2 °F - 21.2 °F 100% 30.24 in 1.2 mi Calm Calm - N/A   Clear
3:22 AM 23.0 °F - 21.2 °F 93% 30.24 in 1.5 mi Calm Calm - N/A   Clear
3:26 AM 23.0 °F - 21.2 °F 93% 30.24 in 1.8 mi Calm Calm - N/A   Clear
3:28 AM 23.0 °F - 21.2 °F 93% 30.24 in 2.0 mi Calm Calm - N/A   Clear
3:30 AM 23.0 °F - 21.2 °F 93% 30.24 in 2.5 mi Calm Calm - N/A   Clear
3:32 AM 23.0 °F 18.4 °F 21.2 °F 93% 30.24 in 3.0 mi North 3.5 mph - N/A   Clear
3:55 AM 20.8 °F 16.0 °F 19.2 °F 93% 30.23 in 10.0 mi NNE 3.5 mph - N/A   Clear
4:55 AM 23.4 °F - 21.9 °F 94% 30.22 in 10.0 mi Calm Calm - N/A   Clear
5:55 AM 21.2 °F - 19.6 °F 93% 30.22 in 10.0 mi Calm Calm - N/A   Clear
6:55 AM 22.6 °F - 21.2 °F 94% 30.23 in 10.0 mi Calm Calm - N/A   Clear
7:55 AM 25.2 °F - 23.9 °F 95% 30.24 in 10.0 mi Calm Calm - N/A   Clear
8:55 AM 30.9 °F 26.2 °F 30.4 °F 98% 30.22 in 10.0 mi NE 4.6 mph - N/A   Clear
9:55 AM 37.2 °F 32.6 °F 26.8 °F 66% 30.21 in 10.0 mi North 5.8 mph - N/A   Clear
10:55 AM 41.7 °F 38.8 °F 25.9 °F 53% 30.20 in 10.0 mi North 4.6 mph - N/A   Clear
11:55 AM 44.6 °F 43.1 °F 27.0 °F 50% 30.17 in 10.0 mi Variable 3.5 mph - N/A   Clear
12:55 PM 48.4 °F - 27.7 °F 45% 30.15 in 10.0 mi WNW 4.6 mph - N/A   Scattered Clouds
1:55 PM 48.9 °F - 27.5 °F 43% 30.14 in 10.0 mi NW 4.6 mph - N/A   Clear
2:55 PM 48.9 °F - 27.0 °F 43% 30.14 in 10.0 mi NNW 5.8 mph - N/A   Partly Cloudy
3:55 PM 46.8 °F - 26.4 °F 45% 30.14 in 10.0 mi North 5.8 mph - N/A   Clear
4:55 PM 41.4 °F 39.4 °F 26.6 °F 56% 30.15 in 10.0 mi North 3.5 mph - N/A   Clear
5:55 PM 39.6 °F 37.4 °F 27.0 °F 61% 30.15 in 10.0 mi NE 3.5 mph - N/A   Clear
6:55 PM 38.5 °F - 27.0 °F 63% 30.16 in 10.0 mi Calm Calm - N/A   Clear
7:55 PM 35.4 °F - 29.3 °F 78% 30.16 in 10.0 mi Calm Calm - N/A   Clear
8:55 PM 34.0 °F - 27.5 °F 77% 30.17 in 10.0 mi Calm Calm - N/A   Partly Cloudy
9:55 PM 30.6 °F 27.1 °F 26.8 °F 86% 30.17 in 10.0 mi NNE 3.5 mph - N/A   Partly Cloudy
10:55 PM 30.4 °F - 27.0 °F 87% 30.18 in 10.0 mi Calm Calm - N/A   Clear
11:55 PM 28.2 °F 24.4 °F 26.2 °F 92% 30.17 in 10.0 mi NE 3.5 mph - N/A   Clear